User: anonymous   Login
Location: Colle San Luigi
(43.5500°N, 13.4167°E)
Time: 11:58:36
(UTC+00:00)
Language:

SL-4 R/B - Orbit

View from above orbital plane
View from above orbital plane
View from above satellite
View from above satellite

Ground track
Ground track

The orbit data is extracted from the following two-line orbital elements,

1 39679U 14021B   20191.00672283 -.00000054  00000-0  15916-4 0  9999
2 39679  51.6170   7.4004 0172168  20.6455 340.1362 15.06439115342595
Epoch (UTC): 09 July 2020 00:09:40
Eccentricity: 0.0172168
inclination: 51.6170°
perigee height: 428 km
apogee height: 666 km
right ascension of ascending node: 7.4004°
argument of perigee: 20.6455°
revolutions per day: 15.06439115
mean anomaly at epoch: 340.1362°
orbit number at epoch: 34259

The dashed part of the orbit path shows where the satellite is in the earth's shadow,  

DLR